Location: Pedholt
(56.0260°N, 10.2097°E)
Time: 22:16:20
(UTC+00:00)

SR - Pass Details

Date: 03 August 2021
Orbit: 581 x 874 km, 66.7° (Epoch: 26 September)

Event Time Altitude Azimuth Distance (km) Brightness Sun altitude
Rises 07:13:43 0° 252° (WSW) 3,393 ? 29.4°
Reaches altitude 10° 07:16:23 10° 259° (WSW) 2,426 ? 29.8°
Maximum altitude 07:21:40 42° 330° (NNW) 1,110 ? 30.5°
Drops below altitude 10° 07:26:37 10° 41° (NE) 2,257 ? 31.1°
Sets 07:29:01 0° 49° (NE) 3,132 ? 31.5°
